Wind_Speed
47 47 48 49 49 49 49 50 50 49 50 49 48 49 50 51 51 51 51 51 52 51 50 50 50 49 49 49 49 49 50 50 50 50 50 51 50 51 51 50 51 51 52
45 46 46 47 48 49 49 49 50 50 50 49 49 49 50 50 51 51 50 51 51 51 51 52 52 52 52 52 51 51 51 51 51 51 52 53 53 53 53 52 52 52 52
45 45 45 46 47 48 49 49 50 50 50 50 50 50 50 50 50 51 52 51 52 51 51 52 53 54 54 54 53 53 53 52 52 53 53 54 54 55 55 54 54 53 53
44 45 46 47 47 48 49 50 50 51 51 51 51 51 51 52 52 52 53 53 53 52 51 52 53 53 54 54 54 54 54 54 54 54 54 54 55 55 55 54 54 55 55
44 45 46 46 47 48 49 49 50 51 51 51 52 52 52 52 53 53 53 53 54 53 53 53 53 54 54 55 55 55 55 54 54 54 54 54 55 55 55 55 55 56 56
44 44 45 45 46 47 47 48 49 50 50 51 52 52 52 52 52 52 53 53 54 54 54 54 54 54 54 55 56 56 55 55 55 55 55 55 55 56 56 57 57 57 57
43 44 44 45 45 46 47 47 48 49 49 49 51 52 52 52 51 52 52 52 53 53 53 53 54 54 55 55 56 56 56 55 55 55 55 55 55 56 57 58 59 59 58
42 43 44 45 46 47 47 48 48 49 50 50 51 51 52 53 53 53 52 52 53 53 53 53 53 54 54 55 56 56 55 55 55 55 56 55 56 56 58 59 59 59 59
42 42 43 45 46 46 47 48 48 49 49 50 51 51 52 52 53 53 53 52 52 52 53 53 53 53 54 55 56 56 56 56 56 56 56 56 56 57 58 59 60 60 59
42 43 44 44 45 45 46 47 47 48 49 49 49 49 50 51 51 52 52 52 52 52 53 53 53 53 54 54 55 56 56 56 56 56 56 56 57 57 58 59 60 60 59
43 43 43 43 44 45 45 45 46 47 47 47 48 47 47 48 49 50 51 51 51 51 52 52 53 53 53 54 54 55 55 56 56 56 56 56 57 57 58 58 58 58 58
43 43 43 43 43 44 44 45 45 46 46 45 45 45 45 46 46 47 49 50 51 50 50 52 52 53 53 53 53 54 54 55 55 55 55 56 56 56 56 56 56 56 57
43 44 44 44 44 44 44 44 45 45 45 44 44 44 44 44 45 46 47 48 49 49 49 50 50 51 51 51 51 52 52 53 53 53 54 54 54 54 55 56 56 56 56
43 43 43 43 43 44 44 44 44 44 44 44 44 44 43 44 45 45 46 46 47 48 48 48 48 49 49 50 50 50 50 51 52 52 52 53 54 54 54 55 54 54 55
42 42 42 42 42 43 43 43 43 43 42 43 44 44 44 44 45 46 46 46 46 46 46 47 47 47 47 48 48 48 49 50 50 50 51 51 51 52 52 53 53 53 53
41 41 42 42 42 42 42 43 43 42 42 42 43 44 44 44 43 44 44 45 45 46 46 47 47 47 47 47 47 47 48 49 49 49 50 50 50 50 50 51 51 52 52
40 40 40 40 41 41 41 41 41 42 42 42 42 43 43 43 42 43 44 44 45 46 46 46 46 47 47 47 47 47 48 48 48 47 47 48 48 49 49 49 49 49 50
39 39 39 39 40 40 40 40 39 40 40 41 42 43 43 43 42 42 42 42 42 43 44 44 45 45 45 46 46 47 47 47 47 46 46 46 46 47 47 48 48 48 49
38 38 39 39 39 38 38 38 38 38 38 39 40 41 42 42 42 42 41 41 41 41 41 42 42 43 43 44 44 45 46 46 47 46 46 45 45 46 46 46 47 47 48
37 37 38 38 37 37 36 36 37 37 37 37 38 38 38 38 39 39 39 39 39 40 40 40 41 42 42 42 42 43 44 45 45 46 46 46 45 45 45 45 45 46 47
35 35 36 36 35 35 35 35 36 36 36 36 36 36 35 35 36 36 36 37 37 38 39 39 40 41 41 42 42 42 42 42 43 44 45 45 45 45 45 45 44 44 45
34 34 34 34 34 34 34 34 34 35 35 34 34 34 34 34 35 35 35 35 36 36 37 37 38 39 39 40 40 41 41 41 41 42 42 43 43 43 43 43 43 43 43
33 33 32 33 33 33 33 33 32 32 32 32 32 32 32 32 32 33 33 33 34 35 35 35 36 36 36 37 38 39 39 39 39 40 40 41 41 41 41 40 40 41 41
33 32 32 33 32 32 32 32 31 31 30 29 29 29 29 29 30 30 31 31 32 32 33 33 34 34 34 35 36 36 37 37 38 39 38 38 38 38 38 38 39 39 39
33 33 33 32 32 32 32 31 31 30 29 28 28 28 28 29 29 30 30 30 31 31 32 32 33 33 34 34 34 35 35 36 36 37 37 37 36 36 37 37 38 38 38
33 32 32 32 32 32 31 31 30 29 29 29 28 28 28 28 29 29 29 30 30 31 31 31 32 33 33 34 34 34 34 34 35 35 35 35 35 35 36 36 37 37 37
Wind_Direction
264 264 264 264 264 263 264 264 264 263 261 261 262 262 262 261 260 259 260 259 259 259 259 258 259 259 260 261 262 263 264 263 263 262 261 262 262 262 262 262 262 262 261
265 265 266 265 264 264 265 264 264 263 262 262 262 262 262 262 261 261 260 260 260 259 258 257 258 259 260 261 262 263 264 264 264 263 262 263 263 262 262 262 262 262 261
266 266 265 265 266 265 265 265 265 264 263 263 263 263 263 263 263 262 262 261 260 260 259 259 258 259 260 261 262 263 263 264 264 263 263 263 263 263 262 261 261 261 260
267 266 266 266 266 266 266 266 266 264 263 263 263 263 263 263 263 263 262 262 262 261 260 260 259 260 261 261 262 263 264 264 264 264 263 263 263 263 262 261 260 261 261
267 266 267 267 267 268 268 267 266 264 264 264 264 263 264 264 263 263 262 261 262 261 262 262 261 261 261 261 262 262 263 264 265 265 264 263 263 263 263 262 261 261 261
268 268 268 268 268 267 267 267 267 266 265 265 264 264 264 264 263 263 262 261 261 262 262 262 262 262 262 262 262 262 263 263 264 265 265 264 264 263 263 263 263 262 263
268 268 268 268 268 268 267 267 267 267 265 265 265 265 265 264 263 262 262 261 261 261 262 262 262 262 262 262 262 262 263 263 264 265 265 265 264 264 264 264 264 264 264
270 270 269 270 270 270 269 269 268 267 266 266 266 266 265 264 263 262 262 262 262 262 262 262 262 262 262 261 261 262 262 263 264 265 266 266 265 265 265 266 265 266 266
273 273 272 271 272 271 271 271 270 269 268 268 267 267 265 264 263 263 262 263 263 262 262 262 262 262 261 262 262 262 263 263 265 266 266 266 266 266 267 267 266 266 267
274 274 274 273 273 273 273 272 271 271 270 270 269 268 266 264 263 263 262 263 263 263 262 262 263 262 263 263 263 263 263 264 265 265 266 266 266 267 267 268 268 267 268
275 275 274 275 274 274 274 273 272 272 271 271 270 268 267 265 264 263 263 263 263 263 263 262 263 263 263 263 264 264 265 265 265 265 265 266 266 267 268 268 268 268 268
276 276 275 275 275 275 274 274 274 273 272 272 270 268 267 266 266 265 265 264 264 263 263 264 264 264 264 264 265 265 265 265 266 266 266 267 267 267 268 267 267 267 267
276 276 276 276 276 275 275 275 274 274 273 271 270 268 268 267 266 266 266 265 265 265 266 266 266 266 265 265 265 265 266 266 267 267 267 267 268 268 267 267 267 267 267
277 277 277 277 276 276 276 276 275 275 273 271 270 269 269 269 268 267 266 266 267 267 267 267 267 266 266 266 266 266 266 267 267 267 267 267 268 268 268 267 268 268 267
279 279 279 278 278 277 276 276 276 275 274 273 271 271 270 270 269 268 268 267 267 267 267 267 267 267 266 266 266 266 266 266 267 268 268 268 268 267 267 267 267 268 268
279 279 279 278 278 278 277 276 276 275 274 273 273 272 272 271 271 270 269 268 267 267 267 266 266 267 267 266 266 266 266 267 267 268 268 268 268 268 268 268 267 267 267
280 279 279 279 279 278 278 277 276 276 275 274 274 273 272 272 271 271 270 269 268 267 266 266 267 267 267 267 267 267 266 267 268 268 269 269 269 269 269 269 268 267 267
281 280 280 280 280 279 277 276 277 277 275 274 274 274 273 273 272 271 271 271 269 268 267 267 266 267 267 268 268 268 267 267 267 268 268 268 268 269 269 268 268 267 267
282 281 281 281 281 279 278 277 277 278 277 276 275 275 274 273 272 271 271 271 270 269 268 267 267 267 268 268 268 268 267 267 267 267 268 268 268 269 269 269 268 268 268
282 282 282 281 281 280 279 279 279 279 279 278 276 275 273 272 271 272 271 271 270 269 269 269 269 269 269 269 269 268 267 267 267 267 268 268 269 269 270 269 269 268 268
284 284 283 282 282 281 281 281 281 280 279 278 277 275 273 272 271 272 271 271 271 270 270 271 271 271 270 270 270 269 269 269 268 269 268 268 268 269 269 269 268 268 268
285 285 284 283 283 283 284 283 282 281 280 278 276 275 274 272 272 271 271 271 271 271 271 273 273 274 273 272 271 271 271 271 271 270 269 268 268 268 268 268 268 267 267
286 285 284 284 285 285 285 284 284 283 281 279 278 276 275 273 273 272 271 271 272 272 273 274 274 274 274 274 273 272 272 271 271 271 271 270 269 268 268 267 267 267 267
285 284 284 284 285 284 284 284 284 283 282 281 279 277 276 274 273 273 272 273 274 274 274 274 274 274 275 275 275 274 273 272 272 272 272 271 270 268 268 268 268 267 268
285 284 284 283 283 283 283 283 283 283 281 280 279 278 277 276 276 275 274 274 274 274 274 275 275 274 275 275 275 275 274 274 273 272 272 271 270 269 268 268 268 267 267
285 284 283 283 283 283 283 283 282 280 279 279 279 279 279 278 278 277 276 275 275 275 275 276 276 277 276 276 276 276 276 275 275 273 272 270 270 270 269 268 267 266 267
Height
5608 5609 5609 5610 5610 5610 5611 5611 5612 5613 5613 5615 5616 5617 5618 5619 5621 5623 5624 5626 5628 5629 5631 5633 5635 5636 5638 5640 5641 5643 5644 5646 5648 5651 5652 5653 5653 5655 5656 5657 5658 5660 5662
5596 5596 5596 5597 5597 5597 5597 5598 5598 5599 5600 5601 5602 5603 5605 5606 5607 5609 5610 5612 5613 5615 5617 5619 5621 5622 5624 5626 5627 5629 5630 5632 5634 5636 5638 5638 5639 5640 5641 5643 5644 5645 5647
5583 5583 5583 5584 5584 5584 5584 5584 5584 5585 5586 5587 5588 5589 5590 5592 5593 5594 5596 5597 5599 5601 5602 5604 5606 5608 5610 5611 5613 5614 5616 5617 5619 5621 5623 5623 5624 5625 5626 5628 5629 5631 5632
5570 5570 5571 5571 5571 5571 5571 5571 5571 5571 5572 5573 5574 5575 5576 5577 5578 5580 5581 5582 5584 5586 5588 5589 5591 5593 5595 5597 5598 5600 5601 5602 5603 5605 5607 5608 5609 5609 5611 5613 5614 5615 5617
5558 5557 5557 5557 5557 5557 5557 5557 5557 5557 5558 5559 5560 5560 5561 5562 5563 5565 5566 5568 5569 5571 5573 5574 5576 5578 5579 5581 5583 5584 5585 5587 5588 5589 5591 5592 5593 5594 5595 5597 5598 5600 5601
5545 5545 5544 5544 5544 5543 5543 5543 5543 5543 5543 5544 5545 5546 5547 5547 5548 5549 5551 5553 5554 5556 5558 5559 5561 5562 5564 5565 5567 5568 5570 5571 5573 5574 5575 5576 5577 5578 5579 5580 5582 5583 5586
5532 5532 5531 5531 5530 5530 5529 5529 5529 5529 5529 5530 5530 5531 5532 5533 5533 5534 5536 5537 5539 5541 5542 5544 5545 5547 5548 5549 5551 5552 5554 5555 5557 5558 5559 5560 5562 5563 5564 5565 5565 5566 5568
5520 5519 5519 5518 5517 5517 5516 5516 5515 5515 5515 5515 5515 5516 5517 5518 5518 5519 5520 5522 5524 5525 5527 5528 5530 5531 5532 5533 5535 5536 5538 5539 5541 5542 5544 5545 5545 5545 5546 5547 5548 5549 5551
5507 5507 5506 5505 5504 5503 5503 5502 5501 5501 5500 5500 5500 5500 5501 5502 5503 5504 5505 5506 5508 5510 5511 5513 5514 5516 5517 5518 5519 5521 5523 5524 5524 5525 5526 5527 5527 5528 5529 5530 5531 5532 5534
5495 5494 5493 5492 5491 5490 5489 5488 5487 5486 5486 5485 5485 5485 5486 5487 5487 5488 5489 5491 5493 5495 5496 5497 5499 5500 5501 5502 5503 5505 5506 5508 5508 5509 5510 5511 5511 5511 5512 5512 5513 5514 5516
5482 5481 5480 5478 5477 5476 5475 5474 5473 5473 5472 5472 5471 5471 5471 5472 5473 5473 5474 5476 5478 5479 5481 5482 5483 5484 5485 5486 5487 5488 5490 5491 5492 5492 5493 5494 5495 5495 5495 5495 5496 5497 5498
5470 5468 5467 5466 5464 5463 5462 5461 5460 5459 5458 5458 5457 5457 5457 5458 5458 5459 5460 5461 5462 5464 5466 5467 5468 5468 5469 5470 5471 5472 5473 5474 5475 5476 5477 5478 5478 5478 5478 5479 5479 5480 5481
5457 5456 5454 5453 5451 5450 5449 5448 5447 5446 5445 5444 5444 5444 5444 5444 5445 5445 5446 5447 5447 5449 5450 5451 5452 5452 5453 5454 5455 5456 5457 5458 5459 5460 5461 5461 5462 5462 5462 5462 5463 5463 5464
5445 5443 5441 5440 5438 5437 5436 5434 5433 5432 5431 5431 5430 5430 5431 5431 5431 5431 5431 5432 5433 5434 5435 5435 5436 5436 5437 5438 5439 5440 5441 5442 5443 5444 5444 5445 5445 5446 5446 5446 5447 5448 5449
5432 5430 5429 5427 5425 5424 5423 5421 5420 5419 5418 5417 5417 5417 5417 5417 5417 5417 5417 5418 5419 5419 5420 5421 5421 5422 5422 5423 5423 5424 5425 5426 5427 5427 5428 5429 5429 5430 5430 5431 5431 5432 5433
5420 5418 5416 5415 5413 5411 5410 5408 5406 5406 5405 5404 5403 5403 5403 5403 5403 5403 5403 5404 5404 5405 5405 5406 5407 5407 5407 5408 5408 5409 5410 5411 5411 5411 5412 5412 5413 5414 5414 5415 5415 5416 5417
5407 5406 5404 5402 5401 5399 5397 5396 5395 5393 5392 5391 5390 5389 5389 5389 5389 5389 5389 5389 5390 5390 5390 5391 5392 5392 5392 5393 5393 5394 5395 5395 5396 5396 5396 5397 5398 5398 5399 5399 5399 5400 5401
5395 5393 5392 5390 5388 5387 5385 5383 5382 5381 5379 5378 5377 5376 5376 5376 5375 5375 5376 5376 5376 5376 5376 5376 5377 5377 5378 5378 5379 5379 5380 5380 5381 5381 5382 5382 5382 5383 5383 5384 5384 5385 5386
5384 5382 5380 5378 5376 5374 5373 5371 5370 5368 5367 5366 5364 5364 5363 5362 5362 5362 5362 5362 5362 5362 5362 5362 5363 5363 5363 5364 5364 5364 5365 5365 5366 5367 5367 5367 5368 5368 5369 5369 5369 5370 5370
5372 5370 5369 5367 5365 5363 5361 5360 5358 5356 5355 5353 5352 5351 5350 5350 5350 5349 5349 5349 5349 5349 5349 5349 5349 5349 5350 5350 5350 5350 5350 5351 5351 5352 5352 5353 5353 5353 5354 5354 5355 5355 5356
5362 5360 5358 5356 5354 5352 5350 5348 5346 5345 5343 5341 5340 5339 5338 5338 5338 5338 5337 5337 5336 5336 5336 5336 5336 5336 5336 5336 5336 5337 5337 5337 5337 5338 5338 5338 5339 5339 5339 5340 5340 5341 5341
5351 5349 5347 5345 5343 5341 5339 5337 5335 5333 5332 5330 5329 5328 5327 5326 5326 5326 5326 5325 5325 5324 5324 5324 5324 5323 5323 5323 5323 5323 5323 5324 5324 5324 5324 5324 5324 5325 5325 5326 5326 5327 5327
5341 5339 5337 5335 5333 5331 5329 5327 5325 5323 5321 5320 5318 5317 5316 5316 5315 5315 5314 5314 5314 5313 5313 5312 5312 5312 5311 5311 5311 5311 5311 5311 5311 5311 5311 5311 5311 5312 5312 5313 5313 5314 5314
5331 5329 5327 5325 5323 5321 5319 5317 5315 5313 5312 5310 5309 5308 5307 5306 5305 5305 5304 5304 5303 5302 5302 5301 5301 5300 5300 5299 5299 5298 5299 5299 5298 5298 5299 5299 5299 5299 5299 5300 5301 5301 5302
5320 5318 5316 5315 5313 5311 5309 5307 5306 5304 5302 5301 5300 5299 5298 5297 5296 5295 5294 5293 5293 5292 5291 5291 5290 5289 5289 5288 5287 5287 5287 5286 5286 5286 5286 5287 5287 5287 5287 5288 5288 5289 5290
5310 5308 5306 5304 5303 5301 5299 5297 5296 5294 5293 5292 5291 5290 5289 5288 5287 5285 5284 5283 5282 5282 5281 5280 5279 5279 5278 5277 5276 5276 5275 5274 5274 5274 5274 5275 5275 5275 5276 5276 5277 5277 5278